Kezdőlap
METAR-TAF:

METAR-TAF

Repülőterek :

Council Bluffs, Iowa, Amerikai Egyesült Államok

földrajzi szélesség: 41-16N, földrajzi hosszúság: 095-46W, magasság: 382 m

Jelenlegi meteorológiai megfigyelések

A jelentés 35 perccel ezelõtt készült, 15:15 UTC
Dél-délkeleti szél 11 kt
Hőmérséklet 12°C
Páratartalom 100%
Légköri nyomás 1011 hPa
Látótávolság: 4.8 km
Borult 400 lábon
Párásság

METAR: KCBF 061515Z AUTO 16011KT 3SM BR OVC004 12/12 A2985 RMK AO2

Idő: 10:50 (15:50 UTC)


TAF: hiányzik

Meteorológiai megfigyelések és előrejelzések több, mint 4000 repülőtéren (METAR és TAF jelentéseket).

A térképen piros és sárga pontok jelzik az elérhető meteorológiai állomásokat.

Mozgassa az egeret a pont fölött, hogy megjelenjen az állomás neve.

Azután kattintson az időjárási megfigyelések és előrejelzések megtekintéséhez.

A térkép megváltoztatása: kattintson a fekete keresztel jelölt zöld gombra ráközelítéshez, a vonallal jelölt zöld gombra távolításhoz, vagy a zöld nyilakra a szomszédos térképek eléréséhez.


METAR-TAF: